Weather History for West Plains, MO

Change the Weather History Date:

Thursday, March 8, 2012

  Actual Average Record
Temperature  
Mean Temperature 50 °F 45 °F  
Max Temperature 66 °F 56 °F 77 °F (1974)
Min Temperature 34 °F 33 °F 6 °F (1996)
Degree Days  
Heating Degree Days 15 20  
Month to date heating degree days 123 174  
Since 1 July heating degree days 3143 3638  
Cooling Degree Days 0 0  
Month to date cooling degree days 0 0  
Year to date cooling degree days 0 0  
Moisture  
Dew Point 44 °F    
Average Humidity 80    
Maximum Humidity 97    
Minimum Humidity 63    
Precipitation  
Precipitation 0.96 in 0.12 in 1.70 in (1999)
Month to date precipitation 0.96 0.94  
Year to date precipitation 6.28 6.50  
Sea Level Pressure  
Sea Level Pressure 30.15 in    
Wind  
Wind Speed 10 mph (NNW)    
Max Wind Speed 22 mph    
Max Gust Speed 31 mph    
Visibility 8 miles    
Events Rain , Thunderstorm    
T = Trace of Precipitation, MM = Missing Value Source: NWS Daily Summary

Daily Weather History Graph

Daily Weather History Graph

Search for Another Location

Airport:

Trip Planner

Search our weather history database for the weather conditions in past years. The results will help you decide how hot, cold, wet, or windy it might be!

Date:

Astronomy

Mar. 08, 2012 Rise Set
Actual Time 6:27 AM CST 6:09 PM CST
Civil Twilight 6:02 AM CST 6:34 PM CST
Nautical Twilight 5:32 AM CST 7:04 PM CST
Astronomical Twilight 5:01 AM CST 7:35 PM CST
Moon 6:54 PM CST (3/8) 6:13 AM CST (3/8)
Length of Visible Light 12h 32m
Length of Day
11h 41m
Full, 100% of the Moon is Illuminated
Mar 8
Full
Mar 14
Last Quarter
Mar 22
New
Mar 30
First Quarter
Apr 6
Full

Hourly Weather History & Observations

Time (CST) Temp. Windchill Dew Point Humidity Pressure Visibility Wind Dir Wind Speed Gust Speed Precip Events Conditions
12:53 AM 64.9 °F - 53.1 °F 65% 29.99 in 10.0 mi SSW 9.2 mph - N/A   Overcast
2:53 AM 66.0 °F - 55.0 °F 68% 29.96 in 10.0 mi SSW 10.4 mph 17.3 mph N/A   Overcast
3:07 AM 64.4 °F - 55.4 °F 73% 29.97 in 10.0 mi South 8.1 mph - N/A Thunderstorm Overcast
3:14 AM 62.6 °F - 57.2 °F 82% 29.99 in 2.5 mi SSW 11.5 mph - 0.11 in Rain , Thunderstorm Heavy Rain
3:27 AM 60.8 °F - 59.0 °F 94% 29.99 in 3.0 mi WSW 8.1 mph - 0.20 in Rain , Thunderstorm Light Thunderstorms and Rain
3:44 AM 60.8 °F - 59.0 °F 94% 29.99 in 4.0 mi SW 5.8 mph - 0.24 in Rain Rain
3:47 AM 60.8 °F - 59.0 °F 94% 29.99 in 1.8 mi SW 6.9 mph - 0.32 in Rain Heavy Rain
3:53 AM 60.1 °F - 59.0 °F 96% 29.97 in 1.0 mi SW 6.9 mph - 0.41 in Rain Heavy Rain
4:01 AM 60.8 °F - 59.0 °F 94% 29.99 in 1.8 mi SSW 5.8 mph - 0.06 in Rain Heavy Rain
4:07 AM 60.8 °F - 59.0 °F 94% 29.99 in 2.0 mi SSW 5.8 mph - 0.06 in Rain Light Rain
4:15 AM 60.8 °F - 59.0 °F 94% 29.99 in 6.0 mi SSW 4.6 mph - 0.07 in Rain Light Rain
4:39 AM 60.8 °F - 59.0 °F 94% 30.00 in 8.0 mi SSW 5.8 mph - 0.11 in Rain Light Rain
4:53 AM 61.0 °F - 59.0 °F 93% 29.99 in 4.0 mi SSW 6.9 mph - 0.13 in Rain Light Rain
5:26 AM 60.8 °F - 59.0 °F 94% 30.01 in 9.0 mi SSW 8.1 mph - 0.01 in   Overcast
5:53 AM 61.0 °F - 59.0 °F 93% 29.99 in 9.0 mi SSW 9.2 mph - 0.01 in   Overcast
6:35 AM 51.8 °F - 48.2 °F 88% 30.05 in 8.0 mi NNW 15.0 mph 26.5 mph 0.01 in Rain Light Rain
6:53 AM 48.9 °F - 46.0 °F 90% 30.04 in 9.0 mi North 12.7 mph 20.7 mph 0.01 in   Overcast
7:03 AM 48.2 °F - 44.6 °F 87% 30.07 in 10.0 mi North 9.2 mph 19.6 mph N/A   Overcast
7:53 AM 46.0 °F 40.2 °F 42.1 °F 86% 30.10 in 10.0 mi North 12.7 mph 20.7 mph N/A   Overcast
8:07 AM 44.6 °F 39.7 °F 42.8 °F 93% 30.10 in 10.0 mi North 9.2 mph - N/A   Overcast
8:53 AM 44.1 °F 36.8 °F 39.9 °F 85% 30.14 in 10.0 mi North 16.1 mph 23.0 mph N/A   Overcast
9:09 AM 44.6 °F 38.1 °F 39.2 °F 81% 30.16 in 10.0 mi North 13.8 mph 27.6 mph N/A   Overcast
9:25 AM 42.8 °F 35.1 °F 39.2 °F 87% 30.16 in 10.0 mi North 16.1 mph 28.8 mph N/A   Overcast
9:53 AM 42.1 °F 35.2 °F 37.9 °F 85% 30.17 in 7.0 mi North 12.7 mph 23.0 mph 0.01 in Rain Light Rain
10:31 AM 41.0 °F 35.2 °F 37.4 °F 87% 30.21 in 10.0 mi North 9.2 mph - 0.03 in Rain Light Rain
10:53 AM 41.0 °F 35.8 °F 37.9 °F 89% 30.23 in 4.0 mi NNW 8.1 mph - 0.10 in Rain Rain
11:30 AM 39.2 °F 30.8 °F 37.4 °F 93% 30.19 in 4.0 mi North 15.0 mph - 0.10 in Rain , Thunderstorm Rain
11:45 AM 39.2 °F 30.5 °F 37.4 °F 93% 30.20 in 10.0 mi North 16.1 mph 23.0 mph 0.11 in Rain Light Rain
11:53 AM 39.9 °F 31.1 °F 37.0 °F 89% 30.22 in 10.0 mi North 17.3 mph 26.5 mph 0.11 in   Overcast
12:38 PM 39.2 °F 32.0 °F 35.6 °F 87% 30.20 in 10.0 mi North 11.5 mph 23.0 mph N/A   Overcast
12:50 PM 39.2 °F 30.8 °F 35.6 °F 87% 30.20 in 10.0 mi North 15.0 mph 31.1 mph N/A   Overcast
12:53 PM 39.9 °F 31.8 °F 36.0 °F 86% 30.20 in 10.0 mi NNE 15.0 mph - N/A   Overcast
1:53 PM 37.9 °F 32.1 °F 33.1 °F 83% 30.27 in 6.0 mi NNE 8.1 mph 19.6 mph 0.04 in Rain Light Rain
2:53 PM 37.0 °F 28.5 °F 32.0 °F 82% 30.32 in 8.0 mi North 13.8 mph - 0.08 in Rain Light Rain
3:53 PM 37.0 °F 29.8 °F 33.1 °F 86% 30.31 in 10.0 mi NNE 10.4 mph - 0.06 in   Overcast
4:53 PM 37.0 °F 29.8 °F 33.1 °F 86% 30.32 in 10.0 mi North 10.4 mph - 0.00 in   Overcast
5:53 PM 37.0 °F 29.8 °F 30.9 °F 79% 30.32 in 10.0 mi North 10.4 mph - N/A   Partly Cloudy
6:53 PM 37.0 °F 31.6 °F 30.0 °F 76% 30.37 in 10.0 mi NNW 6.9 mph - N/A   Scattered Clouds
7:53 PM 36.0 °F 29.0 °F 28.9 °F 76% 30.34 in 10.0 mi NNE 9.2 mph - N/A   Clear
8:53 PM 35.1 °F 32.2 °F 28.9 °F 78% 30.43 in 10.0 mi NW 3.5 mph - N/A   Clear
9:53 PM 34.0 °F 29.8 °F 28.0 °F 79% 30.40 in 10.0 mi NNE 4.6 mph - N/A   Clear
10:53 PM 35.1 °F 28.6 °F 27.0 °F 72% 30.43 in 10.0 mi North 8.1 mph - N/A   Clear
11:53 PM 35.1 °F 27.9 °F 27.0 °F 72% 30.45 in 10.0 mi North 9.2 mph - N/A   Clear